Location: La Oliva
(42.2466°N, 2.9955°E)
Time: 06:46:22
(UTC+00:00)

COSMOS 2455 - Pass Details

Date: 22 April 2021
Orbit: 902 x 907 km, 67.1° (Epoch: 07 May)

Event Time Altitude Azimuth Distance (km) Brightness Sun altitude
Rises 21:23:37 0° 222° (SW) 3,518 5.8 -26.2°
Reaches altitude 10° 21:26:10 10° 227° (SW) 2,581 5.2 -26.5°
Maximum altitude 21:32:02 55° 304° (NW) 1,078 3.4 -27.2°
Drops below altitude 10° 21:37:57 10° 23° (NNE) 2,598 5.6 -27.8°
Sets 21:40:32 0° 27° (NNE) 3,543 6.3 -28.1°
